FENGYUN 1C DEB, 31533

Orbit data source: Space-Track

FENGYUN 1C DEB, 31533 is space debris in SSO originally from a launch on Mon, 10 May 1999 UTC launched from the Taiyaun Space Center, China (TSC). Fengyun 1C debris stems from the Chinese weather satellite Fengyun-1C, which was intentionally destroyed by a Chinese anti-satellite missile in 2007. This event dramatically increased the amount of space debris, with thousands of trackable fragments posing hazards to satellites and human spaceflight. The Fengyun 1C debris cloud has become a focal point in discussions about space sustainability and the need for international regulations to prevent the creation of new debris.

Loading next visibility...
Identifier
31533, 1999-025BXY
Orbit
SSO
Country
Flag of CNCN / PRC
Related business
Manufacturer
Unknown
Mission
Spacecraft
Bus & Motor
Unknown
Mass
Unknown
Launch date (UTC)
1999-05-10 (27 years ago)
Launch vehicle
Unknown
Launch site
Taiyaun Space Center, China (TSC)
Object type
Payload
Rocket body
Debris
Shape & HBR
Unknown shape, 0.1 m
Radar Cross Section
Small (<0.1 m²)

Expand to show TLE details & history
Last TLE update: 20 hours ago

TLE from 20 hours ago
0 FENGYUN 1C DEB
1 31533U 99025BXY 26121.97945612  .00000659  00000-0  27902-3 0  9998
2 31533  98.9493  22.6187 0064358 303.3430  56.1599 14.27901795681248
Epoch: 2026-05-01T23:30Z
TLE epoch observation values (Epoch: 2026-05-01T23:30:25.008Z)
Latitude
-0.0001°
Longitude
170.11057°
Altitude
776.15 km
Speed
7.479 km/s
True Right ascension
01h 30m 28s
True Declination
0° 00' 00"
Sunlit
Object was in daylight at epoch
Visualization orbit readout
Latitude
Unknown
Longitude
Unknown
Altitude
Unknown
Speed
Unknown
Apparent Right ascension
Unknown
Apparent Declination
Unknown
Sunlit
N/A
Visualization observer readout
Local Sidereal Time
03:41:44
Azimuth
Unknown
Elevation
Unknown
Doppler factor
Unknown
Orbital elements
Apogee altitude
842.083 km
Perigee altitude
749.742 km
Semi-major axis
7,174.049 km
Eccentricity
0.00644
Inclination
98.9493°
RAAN
22.6187°
Arg. of periapsis
303.343°
True anomaly
56.7752°
Mean anomaly
56.1599°
Eccentric anomaly
56.46727°
Mean motion
3.57188 °/min
Orbital period
100.79 mins
BSTAR
0.00027902
Loading maneuver chart data...
Computing Atmospheric mass density...

Documentation

Showing up to 5 results
|